"2010-12-07 00:00:00",400621,2.26,190.6,4.191,0.766,6.409,102.4418,5.531,6.495,45.48,0,109.9,13.46,6.30,152.6
"2010-12-07 00:00:30",400622,3.637,196.1,6.459,1.244,9.86,102.4217,5.48,6.556,45.37,0,109.9,13.46,6.25,158.1
"2010-12-07 00:01:00",400623,3.384,192.6,6.674,1.258,9.29,102.4076,5.444,6.594,45.53,0,109.9,13.46,6.22,154.6
"2010-12-07 00:01:30",400624,3.11,189.5,6.471,1.207,7.681,102.396,5.415,6.353,45.46,0,109.9,13.46,6.19,151.5
"2010-12-07 00:02:00",400625,3.378,190.3,6.351,1.309,7.971,102.3861,5.389,6.444,45.86,0,109.9,13.46,6.16,152.3
"2010-12-07 00:02:30",400626,2.469,185,0.516,0.086,5.823,102.3743,5.359,6.381,45.91,0,109.9,13.5,6.13,147.0
"2010-12-07 00:03:00",400627,3.735,190.4,6.542,1.312,7.072,102.3731,5.356,6.263,45.61,0,109.9,13.46,6.13,152.4
"2010-12-07 00:03:30",400628,2.61,195.4,12.82,0.704,6.436,102.3276,5.24,6.395,44.93,0,109.9,13.46,6.01,157.4
"2010-12-07 00:04:00",400629,3.763,235.7,4.297,0.819,8.74,102.2106,4.941,6.314,44.38,0,109.9,13.46,5.71,197.7
"2010-12-07 00:04:30",400630,3.025,251.4,11.08,1.249,7.654,102.0857,4.622,6.177,44.95,0,109.9,13.46,5.39,213.4
"2010-12-07 00:05:00",400631,2.916,264.1,7.367,1.269,6.335,101.9733,4.335,5.928,45.46,0,109.9,13.46,5.10,226.1
"2010-12-07 00:05:30",400632,2.423,263.1,6.237,1.004,5.079,101.8956,4.137,5.666,45.79,0,109.9,13.46,4.90,225.1
"2010-12-07 00:06:00",400633,2.499,269.5,4.611,1.176,5.717,101.8478,4.015,5.378,46.16,0,109.9,13.46,4.78,231.5
"2010-12-07 00:06:30",400634,1.792,271.9,4.995,0.741,4.732,101.8085,3.914,5.323,46.61,0,109.9,13.46,4.68,233.9
"2010-12-07 00:07:00",400635,1.8,243.2,21.46,1.39,5.621,101.7972,3.885,5.103,47.11,0,109.9,13.46,4.65,205.2
"2010-12-07 00:07:30",400636,3.494,203,9.42,1.107,8.76,101.7972,3.885,5.286,48.25,0,109.9,13.46,4.65,165.0
"2010-12-07 00:08:00",400637,4.102,190.4,6.683,1.355,8.75,101.8396,3.994,5.342,49.75,0,109.9,13.46,4.76,152.4
"2010-12-07 00:08:30",400638,4.029,186.5,6.103,1.24,7.426,101.9227,4.206,5.156,50.26,0,109.9,13.46,4.97,148.5
"2010-12-07 00:09:00",400639,3.713,193.4,9.58,1.072,6.955,101.9922,4.383,5.395,49.32,0,109.9,13.46,5.15,155.4
"2010-12-07 00:09:30",400640,2.437,195.8,4.023,0.142,4.864,102.0052,4.417,5.349,48.08,0,109.9,13.5,5.18,157.8
"2010-12-07 00:10:00",400641,2.199,213.1,8.99,1.028,5.632,101.9965,4.394,5.395,47.52,0,109.9,13.47,5.16,175.1
"2010-12-07 00:10:30",400642,2.462,229.8,7.08,1.202,5.835,101.9564,4.292,5.281,47.31,0,109.9,13.47,5.06,191.8
"2010-12-07 00:11:00",400643,3.918,252.1,7.316,0.965,9.04,101.9156,4.188,5.423,47.37,0,109.9,13.47,4.95,214.1
"2010-12-07 00:11:30",400644,3.839,255.9,9.29,1.228,7.849,101.8826,4.103,5.284,47.23,0,109.9,13.47,4.87,217.9
"2010-12-07 00:12:00",400645,2.688,253.2,6.653,1.244,6.148,101.8645,4.057,5.25,47.21,0,109.9,13.47,4.82,215.2
"2010-12-07 00:12:30",400646,2.585,254.3,8.66,1.283,6.026,101.8397,3.994,5.063,47.12,0,109.9,13.47,4.76,216.3
"2010-12-07 00:13:00",400647,1.148,252.4,4.971,0.226,4.217,101.8256,3.958,4.999,47.46,0,109.9,13.51,4.72,214.4
"2010-12-07 00:13:30",400648,1.234,242.4,10.68,0.854,4.675,101.822,3.949,4.956,47.91,0,109.9,13.47,4.71,204.4
"2010-12-07 00:14:00",400649,1.182,235.8,17.58,1.171,5.316,101.8222,3.949,4.935,48.01,0,109.9,13.47,4.72,197.8
"2010-12-07 00:14:30",400650,2.281,237.4,9.04,1.387,7.402,101.8274,3.963,5.147,48.04,0,109.8,13.47,4.73,199.4
"2010-12-07 00:15:00",400651,2.002,228.8,8.88,1.322,6.308,101.8184,3.939,4.932,47.62,0,109.8,13.47,4.71,190.8
"2010-12-07 00:15:30",400652,2.889,232.9,6.574,1.22,7.805,101.8165,3.935,5.094,47.82,0,109.8,13.47,4.70,194.9
"2010-12-07 00:16:00",400653,3.258,225.1,10.12,1.217,7.418,101.8168,3.935,4.925,47.92,0,109.8,13.47,4.70,187.1
"2010-12-07 00:16:30",400654,2.133,196.6,9.32,1.169,6.118,101.8349,3.982,4.975,48.82,0,109.8,13.47,4.75,158.6
"2010-12-07 00:17:00",400655,1.847,180.4,9.99,0.824,5.106,101.8609,4.048,4.881,48.95,0,109.8,13.47,4.81,142.4
"2010-12-07 00:17:30",400656,3.51,179.2,6.539,1.456,7.814,101.8926,4.129,5.041,49.71,0,109.8,13.47,4.90,141.2
"2010-12-07 00:18:00",400657,2.339,168.3,4.792,0.811,7.185,101.9659,4.316,5.188,50.54,0,109.8,13.48,5.08,130.3
"2010-12-07 00:18:30",400658,3.838,178.3,6.182,1.221,9.67,102.0355,4.494,5.332,50.15,0,109.8,13.48,5.26,140.3
"2010-12-07 00:19:00",400659,3.885,190.4,9.92,1.27,9.25,102.0903,4.634,5.438,49.37,0,109.8,13.48,5.40,152.4
"2010-12-07 00:19:30",400660,3.633,193.4,6.448,1.34,8.49,102.1022,4.664,5.607,48.57,0,109.8,13.47,5.43,155.4
"2010-12-07 00:20:00",400661,2.824,189.9,4.806,1.02,5.88,102.098,4.654,5.434,48.21,0,109.8,13.47,5.42,151.9
"2010-12-07 00:20:30",400662,2.433,178.9,5.336,0.708,5.991,102.1023,4.664,5.411,48.69,0,109.8,13.47,5.43,140.9
"2010-12-07 00:21:00",400663,2.51,178.6,5.714,1.093,7.014,102.1336,4.744,5.494,48.96,0,109.8,13.47,5.51,140.6
"2010-12-07 00:21:30",400664,2.735,178.4,5.851,1.142,7.134,102.1704,4.838,5.543,48.78,0,109.8,13.47,5.61,140.4
"2010-12-07 00:22:00",400665,3.418,178.3,5.657,1.245,9.94,102.2049,4.926,5.85,48.9,0,109.8,13.47,5.70,140.3
"2010-12-07 00:22:30",400666,3.383,177.3,6.092,1.096,10.47,102.2453,5.03,5.929,48.8,0,109.8,13.47,5.80,139.3
"2010-12-07 00:23:00",400667,2.749,168.4,8.22,1.244,8.11,102.2863,5.134,5.939,48.45,0,109.8,13.47,5.90,130.4
"2010-12-07 00:23:30",400668,2.764,165,5.831,1.252,7.318,102.3148,5.207,5.892,47.98,0,109.8,13.47,5.98,127.0
"2010-12-07 00:24:00",400669,1.974,163.7,2.489,0.227,5.572,102.3366,5.263,5.985,47.63,0,109.8,13.51,6.03,125.7
"2010-12-07 00:24:30",400670,1.831,159.8,1.348,0.096,5.214,102.3335,5.255,5.936,47.18,0,109.8,13.51,6.03,121.8
"2010-12-07 00:25:00",400671,1.737,164.6,1.86,0.062,5.665,102.3078,5.189,5.947,46.92,0,109.8,13.48,5.96,126.6
"2010-12-07 00:25:30",400672,3.106,178.7,9.32,1.207,8.87,102.2928,5.151,6.173,46.9,0,109.8,13.48,5.92,140.7
"2010-12-07 00:26:00",400673,3.205,180.3,5.306,1.224,9.93,102.2702,5.093,6.141,47.03,0,109.8,13.48,5.86,142.3
"2010-12-07 00:26:30",400674,3.243,176.9,5.685,1.211,9.07,102.2413,5.02,6.11,47.22,0,109.8,13.48,5.79,138.9
"2010-12-07 00:27:00",400675,3.429,178.4,5.534,1.149,9.06,102.2388,5.013,6.029,47.5,0,109.8,13.48,5.78,140.4
"2010-12-07 00:27:30",400676,1.796,173,0.544,0.048,5.662,102.2577,5.061,5.884,47.5,0,109.8,13.52,5.83,135.0
"2010-12-07 00:28:00",400677,1.948,174.3,0.655,0.038,5.331,102.2727,5.1,5.91,47.46,0,109.8,13.52,5.87,136.3
"2010-12-07 00:28:30",400678,2,174.8,0.328,0.023,5.605,102.2792,5.116,5.932,47.36,0,109.8,13.52,5.89,136.8
"2010-12-07 00:29:00",400679,3.053,182.2,6.948,1.249,7.924,102.2996,5.168,6.08,47.39,0,109.8,13.48,5.94,144.2
"2010-12-07 00:29:30",400680,4.13,188.7,6.019,1.038,10.36,102.3066,5.186,6.233,47.44,0,109.8,13.48,5.96,150.7
"2010-12-07 00:30:00",400681,3.716,183,7.328,1.225,9.96,102.3066,5.186,6.202,47.27,0,109.8,13.48,5.96,145.0
"2010-12-07 00:30:30",400682,3.438,172.8,6.758,1.235,9.42,102.3066,5.186,6.257,47.03,0,109.8,13.48,5.96,134.8
"2010-12-07 00:31:00",400683,3.206,161.9,6.573,1.182,7.204,102.3222,5.226,6.115,46.57,0,109.8,13.48,6.00,123.9
"2010-12-07 00:31:30",400684,2.341,155.4,1.277,0.108,5.218,102.3406,5.273,6.058,46.32,0,109.8,13.52,6.04,117.4
"2010-12-07 00:32:00",400685,2.459,155.4,1.3,0.084,5.609,102.3417,5.276,6.088,46.23,0,109.8,13.52,6.05,117.4
"2010-12-07 00:32:30",400686,4.159,164,7.118,1.245,8.92,102.3621,5.328,6.177,46.12,0,109.8,13.48,6.10,126.0
"2010-12-07 00:33:00",400687,4.13,166.6,7.112,1.308,9.75,102.3736,5.357,6.397,46.25,0,109.8,13.48,6.13,128.6
"2010-12-07 00:33:30",400688,4.218,171.5,5.461,1.193,10.17,102.3742,5.359,6.386,46.21,0,109.8,13.48,6.13,133.5
"2010-12-07 00:34:00",400689,4.051,172.5,5.794,1.168,9.97,102.3669,5.34,6.405,46.21,0,109.8,13.48,6.11,134.5
"2010-12-07 00:34:30",400690,2.941,170.6,5.866,1.332,7.291,102.3536,5.306,6.198,46.03,0,109.8,13.48,6.08,132.6
"2010-12-07 00:35:00",400691,1.792,162.7,2.592,0.045,5.22,102.3406,5.273,6.145,46.07,0,109.8,13.52,6.04,124.7
"2010-12-07 00:35:30",400692,2.003,157.2,1.82,0.074,5.328,102.3406,5.273,6.135,46.03,0,109.8,13.52,6.04,119.2
"2010-12-07 00:36:00",400693,2.696,158.9,4.947,1.105,6.723,102.3406,5.273,6.174,46.06,0,109.8,13.48,6.04,120.9
"2010-12-07 00:36:30",400694,3.44,160.1,8.28,1.329,9.45,102.3409,5.274,6.372,46.23,0,109.8,13.48,6.04,122.1
"2010-12-07 00:37:00",400695,3.184,156.5,7.457,1.26,9.35,102.3409,5.274,6.374,46.23,0,109.8,13.48,6.04,118.5
"2010-12-07 00:37:30",400696,4.194,155.5,5.685,1.143,10.19,102.3397,5.271,6.412,46.25,0,109.8,13.48,6.04,117.5
"2010-12-07 00:38:00",400697,4.034,151.1,6.066,1.256,8.52,102.3409,5.274,6.228,46.02,0,109.8,13.48,6.04,113.1
"2010-12-07 00:38:30",400698,2.67,145.1,0.945,0.048,5.803,102.3411,5.274,6.135,45.87,0,109.8,13.51,6.04,107.1
"2010-12-07 00:39:00",400699,2.72,145.5,1.377,0.476,5.874,102.3414,5.275,6.149,45.83,0,109.8,13.48,6.05,107.5
"2010-12-07 00:39:30",400700,3.733,151.9,6.738,1.3,8.33,102.3559,5.312,6.291,45.9,0,109.8,13.48,6.08,113.9
"2010-12-07 00:40:00",400701,3.978,154.5,7.026,1.278,9.15,102.3556,5.311,6.355,45.92,0,109.8,13.48,6.08,116.5
"2010-12-07 00:40:30",400702,3.898,155.1,7.281,1.235,10.21,102.3485,5.293,6.42,45.97,0,109.8,13.48,6.06,117.1
"2010-12-07 00:41:00",400703,4.025,153,6.612,1.237,9.67,102.3449,5.284,6.411,45.96,0,109.8,13.48,6.05,115.0
"2010-12-07 00:41:30",400704,3.098,150,6.643,1.197,7.949,102.3458,5.286,6.262,45.89,0,109.8,13.48,6.06,112.0
"2010-12-07 00:42:00",400705,1.959,144.1,0.933,0.05,5.416,102.3246,5.232,6.124,45.79,0,109.8,13.52,6.00,106.1
"2010-12-07 00:42:30",400706,2.645,147.3,5.936,1.101,6.659,102.3147,5.207,6.101,45.83,0,109.8,13.48,5.98,109.3
"2010-12-07 00:43:00",400707,3.146,151.2,6.758,1.324,8.16,102.3162,5.211,6.243,46.01,0,109.8,13.49,5.98,113.2
"2010-12-07 00:43:30",400708,3.421,150.2,6.382,1.303,8.22,102.3131,5.203,6.124,45.92,0,109.8,13.49,5.97,112.2
"2010-12-07 00:44:00",400709,3.994,154,6.522,1.196,9.59,102.3128,5.202,6.317,46.16,0,109.9,13.49,5.97,116.0
"2010-12-07 00:44:30",400710,4.79,156.6,6.118,0.88,10.14,102.3188,5.217,6.311,46.22,0,109.8,13.49,5.99,118.6
"2010-12-07 00:45:00",400711,2.956,147.7,5.503,0.879,7.245,102.3179,5.215,6.236,45.9,0,109.8,13.49,5.99,109.7
"2010-12-07 00:45:30",400712,3.183,148.9,5.684,1.168,6.945,102.3335,5.255,6.098,45.54,0,109.8,13.49,6.03,110.9
"2010-12-07 00:46:00",400713,2.87,149.8,6.178,1.009,7.306,102.3522,5.303,6.271,45.59,0,109.8,13.49,6.07,111.8
"2010-12-07 00:46:30",400714,2.512,151.1,4.019,1.045,6.736,102.3542,5.308,6.155,45.52,0,109.8,13.49,6.08,113.1
"2010-12-07 00:47:00",400715,2.55,154.9,6.472,1.115,8.02,102.3423,5.277,6.291,45.73,0,109.8,13.49,6.05,116.9
"2010-12-07 00:47:30",400716,2.805,163.4,7.65,1.273,9.17,102.3243,5.231,6.34,45.92,0,109.8,13.49,6.00,125.4
"2010-12-07 00:48:00",400717,1.701,162.6,5.527,1.131,7.207,102.2994,5.168,6.14,45.9,0,109.8,13.49,5.94,124.6
"2010-12-07 00:48:30",400718,2.08,168.9,5.812,1.253,7.639,102.2875,5.137,6.21,46.21,0,109.8,13.49,5.91,130.9
"2010-12-07 00:49:00",400719,0.915,158.6,0.97,0.044,5.073,102.2604,5.068,6.014,46.2,0,109.8,13.53,5.84,120.6
"2010-12-07 00:49:30",400720,1.051,158.7,4.287,0.771,5.275,102.2533,5.05,5.979,46.35,0,109.8,13.49,5.82,120.7
"2010-12-07 00:50:00",400721,1.746,161.8,7.755,1.246,7.371,102.2324,4.997,6.099,46.55,0,109.8,13.49,5.77,123.8
"2010-12-07 00:50:30",400722,0.699,161.2,1.84,0.043,5.532,102.2219,4.97,5.918,46.46,0,109.8,13.53,5.74,123.2
"2010-12-07 00:51:00",400723,1.172,166.5,5.639,1.089,6.906,102.2205,4.966,5.904,46.52,0,109.8,13.5,5.74,128.5
"2010-12-07 00:51:30",400724,1.696,174.1,7.629,1.242,8.17,102.2228,4.972,6.039,46.77,0,109.8,13.5,5.74,136.1
"2010-12-07 00:52:00",400725,1.015,169.3,4.507,1.174,7.748,102.2183,4.961,6.013,46.8,0,109.8,13.5,5.73,131.3
"2010-12-07 00:52:30",400726,0.079,159.6,2.235,0.059,5.841,102.1951,4.901,5.832,46.76,0,109.8,13.52,5.67,121.6
"2010-12-07 00:53:00",400727,-0.063,154.8,4.462,0.032,5.301,102.1932,4.897,5.831,46.77,0,109.8,13.52,5.67,116.8
"2010-12-07 00:53:30",400728,0.076,131.7,9.82,0.664,5.224,102.192,4.894,5.94,46.97,0,109.8,13.49,5.66,93.7
"2010-12-07 00:54:00",400729,0.877,105.7,18.04,1.248,6.408,102.1961,4.904,5.832,46.91,0,109.8,13.49,5.67,67.7
"2010-12-07 00:54:30",400730,-0.144,128.3,12.13,0.005,4.625,102.1952,4.902,5.78,46.97,0,109.8,13.53,5.67,90.3
"2010-12-07 00:55:00",400731,-0.135,100,16.85,0.026,4.475,102.1946,4.9,5.775,47.01,0,109.8,13.53,5.67,62.0
"2010-12-07 00:55:30",400732,0.184,116.4,4.809,0.67,4.373,102.197,4.906,5.756,47.11,0,109.8,13.5,5.68,78.4
"2010-12-07 00:56:00",400733,0.977,47.33,36.41,1.251,5.961,102.1783,4.859,5.888,46.9,0,109.8,13.5,5.63,9.3
"2010-12-07 00:56:30",400734,0.023,15.94,6.895,0.074,4.255,102.1217,4.714,5.7,46.36,0,109.8,13.53,5.48,337.9
"2010-12-07 00:57:00",400735,0.049,1.032,9.11,0.095,4.231,102.0646,4.568,5.616,46.32,0,109.8,13.54,5.34,323.0
"2010-12-07 00:57:30",400736,0.31,349.8,2.672,0.044,4.523,102.012,4.434,5.52,46.63,0,109.8,13.54,5.20,311.8
"2010-12-07 00:58:00",400737,1.143,349,6.27,1.226,6.098,101.979,4.349,5.548,47.15,0,109.8,13.5,5.12,311.0
"2010-12-07 00:58:30",400738,0.655,355.2,84.9,1.103,6.277,101.9609,4.303,5.458,47.76,0,109.8,13.51,5.07,317.2
"2010-12-07 00:59:00",400739,0.109,184.5,6.643,0.638,5.275,101.9716,4.331,5.42,48.69,0,109.8,13.51,5.10,146.5
"2010-12-07 00:59:30",400740,1.251,221.7,5.891,1.264,7.288,102.0076,4.422,5.419,48.71,0,109.8,13.5,5.19,183.7
"2010-12-07 01:00:00",400741,1.229,241.4,3.825,1.193,6.906,102.0458,4.52,5.402,48.53,0,109.8,13.51,5.29,203.4
"2010-12-07 01:00:30",400742,0.8,246,6.969,1.085,5.93,102.0741,4.592,5.531,48.49,0,109.8,13.51,5.36,208.0
"2010-12-07 01:01:00",400743,0.199,237.6,2.943,0.002,4.126,102.1035,4.668,5.413,48.21,0,109.8,13.54,5.44,199.6
"2010-12-07 01:01:30",400744,0.164,237.3,1.095,0.037,4.219,102.1177,4.704,5.514,48.23,0,109.8,13.54,5.47,199.3
"2010-12-07 01:02:00",400745,1.146,246.5,6.487,1.296,6.256,102.1318,4.74,5.546,48.17,0,109.8,13.51,5.51,208.5
"2010-12-07 01:02:30",400746,0.308,329,25.42,0.532,4.978,102.1146,4.696,5.626,47.5,0,109.8,13.51,5.46,291.0
"2010-12-07 01:03:00",400747,0.529,336.2,9.21,0.161,4.148,102.0617,4.561,5.464,46.59,0,109.8,13.55,5.33,298.2
"2010-12-07 01:03:30",400748,1.733,328.2,6.345,1.274,5.93,102.0159,4.444,5.548,46.92,0,109.8,13.51,5.21,290.2
"2010-12-07 01:04:00",400749,1.678,322.3,8.55,1.083,6.113,101.9777,4.346,5.493,46.71,0,109.8,13.51,5.11,284.3
"2010-12-07 01:04:30",400750,2.335,323,9.03,1.266,7.425,101.9418,4.255,5.546,47.06,0,109.8,13.51,5.02,285.0
"2010-12-07 01:05:00",400751,2.51,307.8,14.43,1.294,7.724,101.9268,4.216,5.428,47.41,0,109.8,13.51,4.98,269.8
"2010-12-07 01:05:30",400752,0.66,247.2,14.33,0.066,4.611,101.924,4.209,5.194,48.43,0,109.8,13.55,4.98,209.2
"2010-12-07 01:06:00",400753,1.836,241.7,7.427,1.282,6.68,101.9706,4.328,5.258,49.13,0,109.8,13.51,5.10,203.7
"2010-12-07 01:06:30",400754,1.587,220.9,8.94,1.282,6.787,102.0201,4.455,5.393,48.87,0,109.8,13.51,5.22,182.9
"2010-12-07 01:07:00",400755,0.943,199.5,3.303,0.662,5.398,102.0741,4.593,5.296,48.22,0,109.8,13.51,5.36,161.5
"2010-12-07 01:07:30",400756,2.019,203.6,9.37,1.313,7.151,102.1185,4.706,5.516,48.12,0,109.8,13.51,5.47,165.6
"2010-12-07 01:08:00",400757,2.046,210.2,5.899,1.334,7.564,102.138,4.756,5.567,48,0,109.8,13.51,5.52,172.2
"2010-12-07 01:08:30",400758,2.165,218.7,6.551,1.281,7.603,102.1547,4.798,5.551,47.81,0,109.8,13.51,5.57,180.7
"2010-12-07 01:09:00",400759,2.212,228.2,13.28,1.251,7.877,102.146,4.776,5.729,47.55,0,109.8,13.51,5.54,190.2
"2010-12-07 01:09:30",400760,1.828,261.1,10.94,1.335,7.001,102.0951,4.646,5.618,46.71,0,109.8,13.51,5.41,223.1
"2010-12-07 01:10:00",400761,0.474,264.9,7.906,0.065,4.598,102.0487,4.528,5.474,46.76,0,109.8,13.54,5.30,226.9
"2010-12-07 01:10:30",400762,0.654,274.4,9.33,0.693,4.553,102.0097,4.428,5.451,47,0,109.8,13.5,5.20,236.4
"2010-12-07 01:11:00",400763,1.243,279.4,14.84,1.169,6.28,101.9814,4.356,5.491,47.26,0,109.8,13.5,5.12,241.4
"2010-12-07 01:11:30",400764,0.455,267.2,16.29,0.326,4.625,101.9627,4.308,5.389,47.34,0,109.8,13.54,5.08,229.2
"2010-12-07 01:12:00",400765,1.575,291.5,14.37,1.09,5.815,101.935,4.237,5.325,47.34,0,109.8,13.51,5.00,253.5
"2010-12-07 01:12:30",400766,2.093,285.6,5.763,1.234,6.747,101.926,4.214,5.319,47.38,0,109.8,13.51,4.98,247.6
"2010-12-07 01:13:00",400767,1.614,288.4,7.004,1.184,6.103,101.9067,4.165,5.337,47.46,0,109.7,13.51,4.93,250.4
"2010-12-07 01:13:30",400768,2.939,301.8,7.402,1.096,8.11,101.8971,4.141,5.347,47.42,0,109.8,13.51,4.91,263.8
"2010-12-07 01:14:00",400769,1.679,291.9,7.152,1.122,5.63,101.8765,4.088,5.258,47.47,0,109.8,13.51,4.85,253.9
"2010-12-07 01:14:30",400770,1.139,279.7,4.754,0.043,4.15,101.8683,4.067,5.063,47.51,0,109.7,13.55,4.83,241.7
"2010-12-07 01:15:00",400771,2.329,286.2,9.07,1.397,6.126,101.8726,4.078,5.17,47.7,0,109.8,13.51,4.84,248.2
"2010-12-07 01:15:30",400772,2.611,284.1,7.08,1.35,6.435,101.8709,4.074,5.145,47.65,0,109.8,13.52,4.84,246.1
"2010-12-07 01:16:00",400773,2.776,290.9,5.206,1.322,6.756,101.8605,4.047,5.104,47.53,0,109.8,13.52,4.81,252.9
"2010-12-07 01:16:30",400774,2.637,312.4,8.66,1.262,5.076,101.8297,3.968,5.042,47.8,0,109.8,13.52,4.73,274.4
"2010-12-07 01:17:00",400775,3.318,318.8,5.855,1.22,6.422,101.7697,3.815,4.964,48.19,0,109.8,13.52,4.58,280.8
"2010-12-07 01:17:30",400776,2.988,314.2,9,1.283,6.172,101.7078,3.657,4.963,48.68,0,109.8,13.52,4.42,276.2
"2010-12-07 01:18:00",400777,2.4,294,5.876,1.045,5.723,101.6838,3.596,4.76,48.88,0,109.8,13.52,4.36,256.0
"2010-12-07 01:18:30",400778,1.993,291.3,4.749,0.821,4.986,101.7146,3.675,4.762,48.84,0,109.8,13.51,4.44,253.3
"2010-12-07 01:19:00",400779,3.307,295.9,7.555,1.256,7.963,101.754,3.775,4.937,48.93,0,109.8,13.52,4.54,257.9
"2010-12-07 01:19:30",400780,2.346,286.4,7.668,1.241,6.884,101.7849,3.854,4.745,48.76,0,109.8,13.52,4.62,248.4
"2010-12-07 01:20:00",400781,1.421,280.9,4.785,0.756,5.594,101.8134,3.927,4.785,48.76,0,109.7,13.52,4.69,242.9
"2010-12-07 01:20:30",400782,1.9,287.1,6.648,1.25,6.36,101.8344,3.98,4.784,48.64,0,109.8,13.52,4.75,249.1
"2010-12-07 01:21:00",400783,3.164,308.1,9.49,1.021,7.785,101.8531,4.028,4.991,48.53,0,109.8,13.52,4.79,270.1
"2010-12-07 01:21:30",400784,1.858,323.4,2.944,0.579,3.49,101.8135,3.927,4.841,48.4,0,109.7,13.52,4.69,285.4
"2010-12-07 01:22:00",400785,1.986,327.9,2.309,0.086,3.281,101.7513,3.768,4.751,48.43,0,109.8,13.55,4.53,289.9
"2010-12-07 01:22:30",400786,3.769,333.2,6.352,1.249,6.936,101.6914,3.615,4.837,48.91,0,109.7,13.52,4.38,295.2
"2010-12-07 01:23:00",400787,3.51,329.5,7.266,1.263,6.231,101.6314,3.462,4.76,49.33,0,109.7,13.52,4.23,291.5
"2010-12-07 01:23:30",400788,4.261,331,5.802,1.145,6.435,101.583,3.339,4.45,49.46,0,109.7,13.52,4.10,293.0
"2010-12-07 01:24:00",400789,3.503,331.3,6.836,1.202,5.684,101.546,3.244,4.466,49.73,0,109.7,13.52,4.01,293.3
"2010-12-07 01:24:30",400790,3.601,332.7,5.785,1.2,5.248,101.518,3.173,4.357,49.93,0,109.7,13.51,3.94,294.7
"2010-12-07 01:25:00",400791,3.634,335.6,10.28,1.245,6.488,101.4934,3.11,4.311,50.37,0,109.7,13.51,3.87,297.6
"2010-12-07 01:25:30",400792,3.399,312.3,6.827,1.234,7.329,101.5305,3.205,4.437,50.97,0,109.7,13.51,3.97,274.3
"2010-12-07 01:26:00",400793,3.097,301.1,10.23,1.332,7.064,101.5944,3.368,4.321,50.71,0,109.7,13.51,4.13,263.1
"2010-12-07 01:26:30",400794,1.584,284.2,2.961,0.086,5.032,101.6609,3.537,4.353,50.48,0,109.7,13.55,4.30,246.2
"2010-12-07 01:27:00",400795,2.575,282.7,6.066,1.255,7.069,101.7166,3.68,4.46,50.23,0,109.7,13.51,4.44,244.7
"2010-12-07 01:27:30",400796,1.831,283,9.43,0.97,5.727,101.7627,3.797,4.594,49.92,0,109.8,13.51,4.56,245.0
"2010-12-07 01:28:00",400797,2.619,301.4,5.677,1.226,6.052,101.7882,3.862,4.629,49.31,0,109.7,13.51,4.63,263.4
"2010-12-07 01:28:30",400798,2.332,324.7,11.43,1.062,4.995,101.771,3.818,4.702,49.13,0,109.7,13.51,4.58,286.7
"2010-12-07 01:29:00",400799,2.862,337.9,5.907,1.224,5.355,101.7161,3.678,4.678,48.89,0,109.7,13.51,4.44,299.9
"2010-12-07 01:29:30",400800,3.551,340.3,6.11,1.301,6.642,101.6657,3.55,4.627,49.13,0,109.7,13.51,4.31,302.3
"2010-12-07 01:30:00",400801,1.774,329.5,2.235,0.121,4.145,101.6247,3.445,4.505,49.5,0,109.7,13.55,4.21,291.5
"2010-12-07 01:30:30",400802,2.383,316.2,15.75,1.346,5.976,101.616,3.423,4.409,49.9,0,109.7,13.52,4.19,278.2
"2010-12-07 01:31:00",400803,1.264,268.3,23.37,0.656,5.031,101.6409,3.486,4.45,50.37,0,109.7,13.52,4.25,230.3
"2010-12-07 01:31:30",400804,2.344,247.5,6.825,1.268,6.644,101.7074,3.656,4.57,50.8,0,109.7,13.53,4.42,209.5
"2010-12-07 01:32:00",400805,1.812,238,4.595,1.035,6.286,101.7747,3.828,4.68,50.62,0,109.7,13.53,4.59,200.0
"2010-12-07 01:32:30",400806,1.569,227.1,5.691,0.953,5.817,101.8369,3.987,4.625,50.32,0,109.7,13.53,4.75,189.1
"2010-12-07 01:33:00",400807,2.609,215.2,12.82,1.252,9.06,101.9077,4.167,4.968,50.5,0,109.7,13.53,4.93,177.2
"2010-12-07 01:33:30",400808,1.971,183.7,7.547,1.25,7.9,101.9758,4.342,4.966,49.99,0,109.7,13.53,5.11,145.7
"2010-12-07 01:34:00",400809,1.157,172,3.07,0.07,5.685,102.0434,4.514,4.963,49.43,0,109.7,13.56,5.28,134.0
"2010-12-07 01:34:30",400810,1.472,178.1,8.18,0.991,6.646,102.0896,4.632,5.246,49.07,0,109.7,13.53,5.40,140.1
"2010-12-07 01:35:00",400811,1.36,200,8.64,1.047,5.877,102.1096,4.683,5.25,48.58,0,109.7,13.53,5.45,162.0
"2010-12-07 01:35:30",400812,1.305,243.4,11.73,1.121,5.73,102.1062,4.674,5.292,47.62,0,109.7,13.53,5.44,205.4
"2010-12-07 01:36:00",400813,0.866,258.3,11.66,0.102,4.969,102.0683,4.578,5.412,47.2,0,109.7,13.57,5.35,220.3
"2010-12-07 01:36:30",400814,3.055,299.2,13.6,1.005,7.79,102.0248,4.466,5.388,46.91,0,109.7,13.53,5.23,261.2
"2010-12-07 01:37:00",400815,2.192,328.6,15.13,1.372,6.218,101.9526,4.282,5.373,46.99,0,109.7,13.53,5.05,290.6
"2010-12-07 01:37:30",400816,1.733,337.1,5.658,1.005,4.948,101.8627,4.053,5.272,47.21,0,109.7,13.53,4.82,299.1
"2010-12-07 01:38:00",400817,2.078,329.8,10.87,1.206,5.062,101.7838,3.851,5.051,47.72,0,109.7,13.53,4.62,291.8
"2010-12-07 01:38:30",400818,2.117,304.8,9.46,1.389,6.006,101.764,3.801,5.023,48.43,0,109.7,13.53,4.57,266.8
"2010-12-07 01:39:00",400819,2.02,299.2,7.632,0.829,3.993,101.7637,3.8,4.816,48.4,0,109.7,13.53,4.57,261.2
"2010-12-07 01:39:30",400820,1.575,306.3,4.631,0.179,3.881,101.7552,3.778,4.77,48.46,0,109.7,13.57,4.54,268.3
"2010-12-07 01:40:00",400821,2.785,293,10.33,1.437,6.73,101.734,3.724,4.994,48.8,0,109.7,13.53,4.49,255.0
"2010-12-07 01:40:30",400822,3.688,286.3,6.25,1.143,8.77,101.7662,3.806,4.931,48.95,0,109.7,13.53,4.57,248.3
"2010-12-07 01:41:00",400823,3.099,280.4,6.613,1.23,8.39,101.8064,3.909,4.948,49.16,0,109.7,13.53,4.67,242.4
"2010-12-07 01:41:30",400824,2.18,277,6.753,1.206,6.318,101.8435,4.003,4.869,49.09,0,109.7,13.53,4.77,239.0
"2010-12-07 01:42:00",400825,2.331,287.7,9.83,1.27,6.924,101.872,4.076,5.009,48.86,0,109.7,13.53,4.84,249.7
"2010-12-07 01:42:30",400826,1.461,311.9,8.94,0.216,3.79,101.8969,4.14,4.87,48.3,0,109.7,13.53,4.91,273.9
"2010-12-07 01:43:00",400827,1.977,322.9,6.726,0.366,3.601,101.8732,4.079,4.883,48.1,0,109.7,13.56,4.85,284.9
"2010-12-07 01:43:30",400828,3.56,340.4,8.78,1.307,5.535,101.8313,3.972,5.027,48.34,0,109.7,13.52,4.74,302.4
"2010-12-07 01:44:00",400829,4.682,345.3,7.087,1.31,7.364,101.7809,3.844,4.989,48.72,0,109.7,13.52,4.61,307.3
"2010-12-07 01:44:30",400830,5.637,350.6,4.555,0.827,8.6,101.7343,3.725,4.956,49.01,0,109.7,13.52,4.49,312.6
"2010-12-07 01:45:00",400831,4.815,345.3,5.34,1.123,7.66,101.6961,3.627,4.824,49.25,0,109.7,13.52,4.39,307.3
"2010-12-07 01:45:30",400832,2.577,326.9,6.655,0.959,4.499,101.678,3.581,4.568,49.46,0,109.7,13.52,4.35,288.9
"2010-12-07 01:46:00",400833,1.865,314.6,2.172,0.061,3.901,101.6853,3.6,4.515,49.59,0,109.7,13.55,4.36,276.6
"2010-12-07 01:46:30",400834,2.251,309,5.201,0.933,4.935,101.6972,3.63,4.623,49.69,0,109.7,13.53,4.39,271.0
"2010-12-07 01:47:00",400835,3.541,308.4,6.733,1.217,7.856,101.7218,3.693,4.754,49.75,0,109.7,13.53,4.46,270.4
"2010-12-07 01:47:30",400836,3.299,305.9,6.716,1.247,8.07,101.7436,3.749,4.85,49.7,0,109.7,13.53,4.51,267.9
"2010-12-07 01:48:00",400837,2.752,297.1,6.5,1.267,6.307,101.7705,3.817,4.739,49.39,0,109.7,13.53,4.58,259.1
"2010-12-07 01:48:30",400838,3.81,299.1,6.424,1.226,7.846,101.7996,3.892,4.915,49.29,0,109.7,13.53,4.66,261.1
"2010-12-07 01:49:00",400839,3.225,293.7,7.115,1.271,6.609,101.8273,3.962,4.797,48.93,0,109.7,13.53,4.73,255.7